[ hide orbit diagram ]
For accurate long-term ephemerides, please instead use our Horizons system.This orbit viewer was implemented using two-body methods, and hence should not be used for determining accurate long-term trajectories (over several years or decades) or planetary encounter circumstances.
Orbital Elements at Epoch 2459200.5 (2020-Dec-17.0) TDB
Reference: JPL 18 (heliocentric ecliptic J2000)
Element | Value | Uncertainty (1-sigma) | Units |
e | .2054336465336869 | 6.1846e-08 | |
a | 2.549760229302233 | 1.99e-08 | au |
q | 2.025953687610106 | 1.5277e-07 | au |
i | 4.89245447459445 | 5.6311e-06 | deg |
node | 42.76098162167632 | 8.3847e-05 | deg |
peri | 118.5769842928213 | 8.6955e-05 | deg |
M | 201.628701927641 | 2.8119e-05 | deg |
tp | 2459854.716384609569 (2022-Oct-02.21638461) | 0.00012226 | TDB |
period | 1487.124885165985 4.07 | 1.7409e-05 4.766e-08 | d yr |
n | .2420778534412184 | 2.8339e-09 | deg/d |
Q | 3.073566770994361 | 2.3988e-08 | au |
|
| | Orbit Determination Parameters
Additional Information
|
[ show covariance matrix ]
Physical Parameter Table
Parameter |
Symbol |
Value |
Units |
Sigma |
Reference |
Notes |
absolute magnitude |
H |
16.2 |
|
n/a |
MPO346031 |
|
diameter |
diameter |
1.464 |
km |
0.230 |
urn:nasa:pds:neowise_diameters_albedos::2.0[mainbelt] (http://adsabs.harvard.edu/abs/2011ApJ...741...68M) |
|
geometric albedo |
albedo |
0.299 |
|
0.128 |
urn:nasa:pds:neowise_diameters_albedos::2.0[mainbelt] (http://adsabs.harvard.edu/abs/2011ApJ...741...68M) |
|
|
382560 (2001 XG215) Discovered 2001-Dec-13 by LINEAR at Socorro |
Reference: | Last Updated: 2014-01-21 |
|
[ show close-approach data ]
|